Wind_Speed
11 13 8 3 7 2 3 5 5 5 6 7 6 7 7 8 10 11 13 13 13 12 16 19 21 28 28 23 21 19 17 16 14 13 11 10 9 7 6 5 4 4 4
10 8 9 3 4 4 5 5 6 5 6 7 8 8 8 8 9 10 10 12 13 11 14 17 20 31 30 26 23 21 19 18 17 16 14 13 10 8 7 6 5 4 5
10 5 7 4 4 7 4 4 5 5 7 5 8 8 7 7 7 8 10 11 10 13 13 15 16 29 31 28 25 23 21 20 19 17 15 13 11 10 8 7 7 6 6
9 8 8 7 6 5 5 4 4 5 10 8 8 7 7 6 7 8 7 8 10 11 14 18 20 27 27 27 26 25 25 23 21 19 17 15 13 11 9 9 9 8 9
10 9 10 8 8 6 6 4 4 6 6 5 6 7 6 6 6 5 7 8 9 11 12 17 22 26 29 31 28 27 26 25 24 22 20 17 14 13 12 11 11 12 13
11 11 12 13 10 9 6 6 7 5 5 4 4 5 5 5 7 7 6 6 9 11 11 15 20 25 28 32 31 30 29 27 25 23 21 18 16 15 13 13 14 16 17
14 14 13 14 13 10 7 6 5 6 2 5 4 6 7 7 7 8 6 6 9 10 11 12 13 17 23 30 35 36 34 31 29 25 23 21 20 18 17 17 20 21 20
15 15 15 14 15 11 9 7 5 4 4 5 3 5 4 7 9 8 9 8 8 9 11 12 13 17 22 22 32 36 37 37 34 31 28 25 23 21 20 22 24 22 22
14 15 16 15 16 15 10 9 6 4 2 6 6 4 4 3 9 10 11 10 10 9 10 13 13 12 15 18 23 33 36 38 35 32 30 28 26 24 24 24 23 22 22
14 16 16 16 17 14 14 10 7 6 7 2 4 6 6 5 4 6 12 11 11 11 11 11 12 13 13 14 17 24 31 35 35 32 30 29 27 26 26 24 23 24 24
11 13 15 14 16 16 14 12 10 9 7 5 6 2 6 5 6 6 6 11 14 13 12 12 12 12 14 14 16 19 27 29 33 33 31 29 29 27 26 25 23 22 22
8 9 10 13 15 16 16 13 11 11 8 8 6 6 7 4 3 5 4 5 8 10 15 14 14 14 13 15 17 20 18 19 23 26 27 27 26 25 23 23 21 20 17
8 9 10 12 14 16 16 14 13 11 11 9 8 6 7 7 7 6 7 5 6 7 10 15 16 15 15 15 16 16 16 18 20 22 23 22 22 21 20 19 19 19 18
7 8 9 11 13 14 16 15 14 12 11 10 11 10 9 9 10 9 8 9 9 8 8 11 13 17 17 18 17 20 19 19 21 22 22 23 22 22 20 18 18 18 18
9 10 10 11 13 14 17 17 16 13 13 13 12 12 12 10 11 10 10 9 10 12 4 7 10 13 15 17 20 22 23 25 23 24 23 23 22 22 23 21 20 19 19
9 12 10 11 13 15 18 21 19 18 18 15 16 15 14 12 12 13 11 11 11 11 12 5 7 8 9 10 13 17 22 26 29 29 28 27 25 24 24 24 23 23 22
10 12 13 12 13 15 18 21 22 20 20 19 18 17 17 16 15 14 15 13 13 13 13 11 11 10 13 14 12 14 15 23 24 27 30 30 28 26 25 24 24 24 23
10 11 13 14 15 15 16 20 21 21 22 22 21 20 20 17 17 17 16 17 16 14 15 16 13 11 12 10 15 14 14 15 19 23 27 31 29 28 26 26 26 25 24
15 12 14 16 16 17 18 19 21 22 23 23 22 23 23 21 22 19 18 18 16 16 16 16 17 14 13 12 13 13 13 13 16 18 21 21 22 24 25 25 25 24 24
10 13 15 18 17 18 18 20 22 24 24 24 24 24 24 23 25 24 21 21 19 19 17 18 18 18 18 16 17 15 16 13 14 15 16 16 19 22 23 23 23 23 23
8 9 11 13 17 20 21 21 24 26 26 25 26 27 27 26 28 27 24 21 22 20 20 20 20 20 18 17 19 14 16 14 17 18 16 16 16 18 21 22 22 21 19
12 11 12 12 14 15 18 23 26 28 27 27 29 27 27 29 30 28 26 29 25 26 24 23 22 21 20 18 17 17 18 16 17 17 19 18 16 19 17 19 18 21 20
18 17 16 16 17 18 20 22 21 23 25 26 28 30 27 26 27 26 27 30 29 32 33 28 26 25 25 20 20 19 18 18 19 12 15 18 16 20 19 20 22 24 23
19 20 21 21 21 22 23 26 22 24 23 22 26 29 29 28 28 28 26 27 28 30 34 34 33 29 26 23 25 22 20 21 21 18 21 17 17 21 17 21 22 24 23
21 20 20 21 23 24 24 28 25 23 23 24 26 26 27 30 32 34 35 32 30 30 27 30 31 30 29 30 27 23 20 20 22 20 20 18 20 20 20 20 21 25 25
20 20 21 21 22 25 26 28 29 26 25 27 27 27 30 33 31 33 37 38 35 34 26 27 28 30 31 33 32 33 28 27 26 24 21 21 20 19 21 21 21 24 22
Wind_Direction
240 237 248 257 287 244 259 263 266 255 258 265 258 248 224 232 210 220 234 244 225 215 216 218 219 209 204 203 199 199 202 201 197 193 192 191 193 196 197 199 218 253 274
240 220 216 252 290 265 266 284 259 244 261 259 259 258 252 223 219 225 204 245 234 218 211 214 216 205 204 205 203 201 205 205 201 199 199 207 207 209 213 225 239 260 275
222 228 210 227 230 264 288 282 273 264 267 271 257 259 257 241 212 219 204 229 233 221 215 216 201 197 197 206 207 207 210 209 208 207 210 215 217 218 225 237 256 273 288
219 227 220 217 255 273 279 271 271 271 275 281 290 257 238 206 202 223 210 216 223 217 217 212 202 199 207 210 214 218 219 217 216 217 218 219 226 231 237 249 258 265 277
230 233 227 220 254 256 262 249 277 289 268 280 270 244 208 194 205 217 219 224 217 207 209 216 210 210 214 216 218 218 220 219 219 219 220 224 228 236 241 251 263 268 272
233 236 228 229 230 249 244 239 244 273 281 292 252 248 217 191 206 202 215 200 208 193 198 222 214 214 215 215 217 217 219 220 222 221 225 229 230 233 242 257 271 277 277
235 235 237 230 227 248 246 264 249 288 281 275 245 222 229 203 221 199 205 199 203 194 192 204 207 211 225 220 219 219 220 225 227 231 234 233 231 237 253 264 279 280 276
237 233 235 228 221 233 230 253 242 236 265 255 244 256 242 220 202 213 205 211 209 201 200 204 206 212 223 223 222 220 223 227 231 232 233 236 238 250 260 274 281 276 274
239 237 229 228 228 224 233 245 242 249 252 232 233 240 231 225 199 211 222 208 216 208 208 210 209 219 223 225 220 224 222 225 228 231 232 237 245 253 266 275 273 272 276
237 234 226 231 222 214 223 234 244 225 253 244 256 251 234 250 192 217 218 223 216 215 216 216 218 213 218 215 229 218 226 224 226 231 234 240 247 259 267 266 270 272 276
229 228 226 224 214 212 227 222 230 236 240 239 246 244 256 259 248 251 239 222 223 224 228 218 217 221 220 217 217 220 224 224 227 231 233 235 247 257 261 265 265 270 272
245 229 225 216 213 214 218 226 232 238 239 246 234 254 277 277 259 289 280 237 233 230 226 227 224 224 229 228 219 221 228 224 224 228 233 241 248 252 255 259 261 265 265
226 237 230 226 224 225 221 229 232 230 247 254 256 250 266 270 279 270 275 262 256 241 238 228 230 226 225 229 235 232 229 225 229 232 234 238 243 247 250 255 258 259 258
245 237 240 231 227 226 227 233 235 243 244 255 260 253 253 267 267 256 263 273 280 244 231 225 233 231 233 232 234 246 238 235 231 234 237 240 243 246 246 247 252 255 256
237 242 236 231 231 232 227 227 239 238 241 251 254 264 258 259 265 265 267 263 268 286 249 220 218 227 229 241 241 237 242 242 239 234 235 241 245 246 246 247 249 253 257
248 232 240 238 237 235 229 229 231 242 246 248 249 242 249 254 258 264 257 263 261 258 275 240 216 229 233 232 246 251 237 239 243 238 239 243 247 250 251 251 252 254 255
267 257 251 243 239 237 236 236 233 233 241 244 243 249 250 250 249 255 261 259 253 254 254 255 248 255 253 251 245 257 252 238 241 243 239 242 249 249 252 253 253 251 253
264 256 245 244 240 238 237 239 240 239 247 246 247 247 247 248 250 255 250 260 251 240 248 259 254 250 261 253 255 261 256 246 240 247 250 244 246 248 249 253 250 252 256
266 259 257 248 243 241 239 238 239 241 242 245 247 247 247 246 248 246 247 248 257 257 253 254 257 258 252 256 261 262 265 252 232 238 247 238 239 243 247 247 249 252 257
284 274 260 253 249 245 242 240 243 246 246 247 247 249 250 254 253 252 244 241 248 248 251 250 253 258 257 256 256 263 263 251 237 234 245 243 251 248 247 247 252 252 251
291 290 280 268 259 253 254 253 248 245 245 248 246 248 252 253 255 261 243 243 239 246 251 258 255 248 252 252 257 255 257 249 256 230 234 244 244 246 246 243 244 239 246
293 286 282 277 271 269 262 254 256 256 253 249 248 248 251 251 255 257 251 244 248 248 242 244 254 248 251 252 251 252 254 251 251 252 235 234 248 244 245 247 257 249 249
289 284 279 274 273 273 272 271 269 268 262 257 257 253 247 251 255 253 253 248 251 248 249 245 249 251 248 251 253 248 245 252 250 243 244 244 249 247 251 255 251 253 254
283 280 277 276 275 273 271 274 274 272 268 265 258 254 253 249 244 243 240 246 247 247 244 243 250 251 251 250 254 259 255 252 248 252 235 246 241 251 251 256 257 255 252
291 287 282 275 272 271 267 272 274 271 268 264 260 260 258 257 252 247 245 245 245 242 243 247 246 244 254 250 252 254 252 251 251 248 245 241 245 249 248 249 260 266 260
291 290 286 282 278 276 273 271 273 270 267 265 267 266 264 258 258 256 245 246 244 242 239 235 243 245 245 250 246 246 246 243 245 246 243 242 250 250 252 250 247 260 271
Height
1580 1582 1583 1586 1585 1585 1587 1587 1586 1587 1587 1587 1587 1587 1587 1589 1589 1588 1587 1589 1589 1591 1594 1596 1598 1602 1606 1609 1612 1615 1618 1621 1622 1623 1624 1625 1626 1627 1628 1629 1629 1630 1630
1578 1577 1580 1583 1585 1586 1585 1584 1585 1585 1586 1586 1586 1585 1584 1586 1586 1587 1588 1587 1588 1589 1591 1593 1594 1598 1603 1607 1611 1613 1616 1619 1620 1622 1623 1625 1626 1626 1627 1628 1629 1629 1629
1576 1576 1579 1580 1584 1583 1581 1583 1582 1583 1583 1583 1583 1584 1584 1584 1586 1586 1586 1586 1586 1587 1589 1590 1592 1596 1601 1606 1609 1612 1614 1617 1618 1620 1622 1624 1625 1625 1626 1627 1627 1627 1627
1576 1576 1577 1578 1581 1582 1581 1582 1583 1584 1581 1581 1582 1583 1583 1584 1585 1585 1586 1587 1584 1587 1587 1588 1591 1595 1600 1603 1607 1610 1612 1614 1617 1619 1620 1622 1623 1624 1624 1625 1626 1626 1625
1574 1575 1576 1578 1580 1581 1580 1580 1583 1581 1580 1581 1581 1580 1581 1583 1584 1585 1585 1585 1586 1586 1587 1587 1590 1593 1596 1599 1603 1607 1610 1612 1614 1616 1617 1619 1620 1622 1622 1623 1623 1623 1623
1572 1574 1575 1577 1578 1580 1579 1580 1581 1582 1580 1580 1581 1581 1581 1583 1584 1584 1585 1585 1584 1585 1586 1586 1587 1590 1592 1595 1599 1603 1606 1609 1612 1613 1615 1616 1617 1619 1620 1621 1621 1621 1620
1570 1572 1574 1575 1576 1578 1578 1579 1578 1580 1580 1580 1580 1580 1580 1581 1583 1583 1584 1584 1583 1584 1586 1586 1587 1589 1590 1591 1594 1598 1602 1605 1608 1610 1612 1614 1615 1615 1617 1618 1618 1617 1616
1567 1569 1571 1572 1574 1577 1577 1578 1579 1580 1580 1579 1578 1578 1579 1580 1581 1581 1582 1583 1583 1583 1584 1585 1585 1586 1587 1588 1589 1592 1595 1600 1603 1606 1608 1610 1612 1612 1613 1613 1613 1613 1612
1565 1566 1567 1569 1571 1574 1576 1576 1576 1577 1575 1577 1576 1577 1576 1576 1578 1579 1579 1581 1581 1582 1582 1583 1583 1584 1584 1584 1586 1587 1590 1594 1598 1601 1603 1606 1607 1608 1609 1608 1608 1608 1608
1560 1562 1564 1566 1568 1572 1574 1574 1575 1575 1575 1575 1576 1575 1575 1576 1576 1575 1577 1578 1579 1580 1580 1581 1582 1582 1582 1582 1582 1584 1586 1589 1593 1595 1599 1601 1603 1603 1604 1603 1603 1603 1602
1557 1558 1560 1561 1564 1567 1570 1572 1573 1573 1575 1575 1575 1575 1574 1575 1574 1575 1574 1574 1576 1578 1578 1579 1580 1581 1580 1581 1582 1581 1582 1584 1588 1591 1593 1595 1597 1598 1599 1598 1598 1598 1597
1555 1556 1558 1559 1562 1565 1567 1568 1569 1571 1572 1573 1574 1574 1574 1572 1572 1573 1574 1573 1572 1574 1575 1576 1577 1578 1579 1579 1578 1580 1579 1582 1585 1587 1589 1591 1592 1593 1593 1593 1593 1593 1593
1555 1555 1555 1558 1560 1562 1564 1566 1567 1569 1570 1571 1572 1573 1574 1574 1574 1573 1574 1572 1571 1571 1571 1572 1573 1575 1576 1577 1577 1576 1577 1578 1580 1583 1585 1586 1588 1588 1589 1589 1589 1589 1590
1553 1553 1555 1555 1557 1560 1562 1564 1565 1567 1569 1570 1570 1571 1572 1572 1572 1572 1572 1571 1570 1568 1568 1568 1569 1571 1572 1573 1574 1573 1575 1575 1576 1578 1580 1582 1583 1584 1584 1584 1585 1585 1586
1550 1550 1551 1553 1555 1556 1558 1561 1562 1565 1565 1567 1568 1569 1569 1570 1570 1570 1570 1570 1569 1566 1562 1564 1566 1566 1568 1569 1569 1569 1569 1570 1572 1573 1574 1576 1578 1579 1580 1580 1580 1581 1582
1545 1547 1548 1549 1550 1551 1553 1555 1558 1561 1562 1563 1563 1563 1566 1567 1567 1567 1568 1568 1568 1567 1564 1562 1564 1564 1564 1564 1564 1562 1563 1563 1565 1568 1570 1571 1572 1574 1575 1575 1575 1576 1576
1542 1542 1543 1545 1547 1548 1549 1550 1552 1555 1557 1557 1558 1559 1560 1561 1563 1564 1565 1565 1564 1565 1564 1562 1562 1561 1559 1559 1559 1558 1558 1558 1560 1561 1564 1565 1567 1568 1569 1570 1570 1571 1571
1539 1539 1540 1541 1542 1543 1545 1547 1548 1550 1552 1553 1554 1555 1555 1557 1556 1557 1559 1560 1560 1560 1561 1560 1559 1558 1557 1557 1555 1555 1554 1556 1556 1556 1557 1559 1561 1562 1563 1564 1565 1566 1566
1535 1536 1536 1537 1538 1539 1540 1541 1542 1544 1545 1547 1548 1549 1549 1550 1550 1552 1553 1554 1555 1555 1556 1556 1556 1555 1555 1555 1553 1552 1551 1550 1551 1552 1551 1553 1554 1555 1557 1558 1559 1560 1560
1531 1531 1531 1532 1532 1533 1534 1536 1537 1537 1538 1539 1540 1541 1542 1542 1542 1543 1545 1547 1549 1548 1549 1550 1551 1551 1551 1551 1549 1550 1549 1548 1548 1549 1548 1550 1550 1551 1551 1552 1552 1553 1554
1530 1529 1529 1528 1528 1528 1528 1529 1529 1530 1530 1531 1532 1532 1533 1534 1535 1536 1538 1540 1542 1543 1544 1544 1544 1544 1545 1545 1545 1546 1546 1546 1544 1544 1544 1545 1545 1546 1545 1546 1546 1546 1547
1526 1526 1525 1525 1524 1524 1524 1522 1522 1522 1522 1522 1522 1524 1525 1525 1526 1528 1530 1532 1534 1534 1535 1537 1539 1538 1540 1541 1542 1542 1541 1541 1542 1540 1539 1540 1542 1539 1541 1540 1540 1542 1543
1520 1519 1519 1520 1519 1518 1517 1516 1515 1514 1514 1515 1514 1515 1516 1519 1519 1520 1520 1522 1523 1525 1527 1529 1529 1531 1532 1534 1536 1536 1536 1537 1538 1537 1536 1535 1537 1537 1539 1538 1536 1537 1538
1514 1513 1513 1512 1512 1511 1511 1509 1509 1508 1507 1506 1506 1506 1507 1508 1510 1511 1513 1514 1513 1514 1515 1517 1519 1522 1525 1527 1528 1529 1531 1531 1531 1531 1532 1530 1533 1533 1533 1532 1532 1532 1533
1506 1506 1506 1505 1505 1504 1503 1502 1502 1501 1500 1499 1498 1498 1498 1498 1499 1501 1503 1504 1505 1504 1506 1507 1508 1511 1515 1519 1520 1522 1524 1526 1525 1525 1525 1526 1527 1528 1528 1528 1525 1525 1526
1502 1501 1499 1498 1496 1494 1493 1493 1493 1492 1491 1491 1490 1489 1488 1487 1489 1491 1492 1494 1495 1496 1498 1501 1499 1500 1502 1506 1510 1512 1514 1516 1518 1518 1520 1520 1521 1522 1522 1522 1521 1517 1518